Location: Sungai Bunut
(2.6333°N, 113.7333°E)
Time: 15:26:16
(UTC+00:00)

Altair - Pass Details

Date: 03 December 2023
Orbit: 1501 x 1682 km, 47.2° (Epoch: 24 February)

Event Time Altitude Azimuth Distance (km) Brightness Sun altitude
Rises 21:17:56 0° 210° (SSW) 4,932 10.1 -14.2°
Reaches altitude 10° 21:21:13 10° 205° (SSW) 3,939 9.6 -13.4°
Maximum altitude 21:31:05 56° 129° (SE) 1,911 8.4 -11.1°
Drops below altitude 10° 21:40:38 10° 54° (NE) 3,836 10.0 -8.9°
Sets 21:43:46 0° 50° (NE) 4,797 10.5 -8.2°
